Sigfox identifier Datetime Temperature Humidity SNR
002EEEFA 2019-04-23 14:54:05 16 35 23
002EEEFA 2019-04-23 14:19:48 16 35 22.6
002EEEFA 2019-04-23 13:45:31 15.8 35 22.4
002EEEFA 2019-04-23 13:11:15 15.8 35 22.1
002EEEFA 2019-04-23 12:36:58 15.8 35 21.7
002EEEFA 2019-04-23 12:02:40 15.8 35 21.5
002EEEFA 2019-04-23 11:28:22 15.6 35 21.2
002EEEFA 2019-04-23 10:54:05 15.6 35 21.3
002EEEFA 2019-04-23 10:19:47 15.6 34 20.9
002EEEFA 2019-04-23 09:45:30 15.6 34 21.1
002EEEFA 2019-04-23 09:11:14 15.6 34 20.8
002EEEFA 2019-04-23 08:36:57 15.6 34 20.4
002EEEFA 2019-04-23 08:02:39 15.6 34 20.5
002EEEFA 2019-04-23 07:28:22 15.6 34 20.5
002EEEFA 2019-04-23 06:54:04 15.6 34 20.7
002EEEFA 2019-04-23 06:19:46 15.6 34 20.8
002EEEFA 2019-04-23 05:45:28 15.6 34 20.8
002EEEFA 2019-04-23 05:11:10 15.6 34 21
002EEEFA 2019-04-23 04:36:53 15.7 34 21
002EEEFA 2019-04-23 04:02:36 15.7 34 21
002EEEFA 2019-04-23 03:28:19 15.7 34 21
002EEEFA 2019-04-23 02:54:02 15.7 34 21
002EEEFA 2019-04-23 02:19:45 15.8 34 21
002EEEFA 2019-04-23 01:45:28 15.8 34 20.9
002EEEFA 2019-04-23 01:11:12 15.8 34 20.9
002EEEFA 2019-04-23 00:36:55 15.8 34 20.8
002EEEFA 2019-04-23 00:02:37 15.8 34 20.7
002EEEFA 2019-04-22 23:28:21 15.8 34 20.5
002EEEFA 2019-04-22 22:54:04 15.8 34 20.7
002EEEFA 2019-04-22 22:19:47 15.8 34 20.6
002EEEFA 2019-04-22 21:45:29 15.8 34 20.5
002EEEFA 2019-04-22 21:11:12 15.8 34 20.3
002EEEFA 2019-04-22 20:36:55 15.8 34 20.1
002EEEFA 2019-04-22 20:02:37 15.8 34 20
002EEEFA 2019-04-22 19:28:21 15.9 34 19.9
002EEEFA 2019-04-22 18:54:05 15.8 34 19.8
002EEEFA 2019-04-22 18:19:49 15.8 34 19.7
002EEEFA 2019-04-22 17:45:31 15.8 34 19.5
002EEEFA 2019-04-22 17:11:15 15.8 34 19.5
002EEEFA 2019-04-22 16:36:59 15.8 34 19.4
002EEEFA 2019-04-22 16:02:42 15.8 34 19.5
002EEEFA 2019-04-22 15:28:25 15.8 34 19.5
002EEEFA 2019-04-22 14:54:08 15.8 34 19.3
002EEEFA 2019-04-22 14:19:51 15.7 34 19.2
002EEEFA 2019-04-22 13:45:33 15.7 34 19.1
002EEEFA 2019-04-22 13:11:15 15.6 34 19.2
002EEEFA 2019-04-22 12:36:57 15.6 34 19.2
002EEEFA 2019-04-22 12:02:40 15.6 34 19.2
002EEEFA 2019-04-22 11:28:23 15.6 34 19.3
002EEEFA 2019-04-22 10:54:06 15.6 34 19.4
002EEEFA 2019-04-22 10:19:49 15.6 34 19.5
002EEEFA 2019-04-22 09:45:30 15.6 34 19.6
002EEEFA 2019-04-22 09:11:13 15.6 34 19.8
002EEEFA 2019-04-22 08:36:56 15.6 34 19.8
002EEEFA 2019-04-22 08:02:38 15.6 34 19.8
002EEEFA 2019-04-22 07:28:22 15.6 34 19.9
002EEEFA 2019-04-22 06:54:05 15.6 34 19.9
002EEEFA 2019-04-22 06:19:49 15.6 34 20
002EEEFA 2019-04-22 05:45:33 15.6 34 20.1
002EEEFA 2019-04-22 05:11:16 15.6 34 20.2
002EEEFA 2019-04-22 04:36:59 15.6 34 20
002EEEFA 2019-04-22 04:02:43 15.6 34 20
002EEEFA 2019-04-22 03:28:27 15.6 34 20.2
002EEEFA 2019-04-22 02:54:12 15.6 34 20.2
002EEEFA 2019-04-22 02:19:55 15.6 34 20.2
002EEEFA 2019-04-22 01:45:39 15.6 34 20.2
002EEEFA 2019-04-22 01:11:21 15.6 34 20
002EEEFA 2019-04-22 00:37:04 15.6 33 20
002EEEFA 2019-04-22 00:02:47 15.6 34 20.1
002EEEFA 2019-04-21 23:28:30 15.6 33 20.1
002EEEFA 2019-04-21 22:54:13 15.6 33 19.9
002EEEFA 2019-04-21 22:19:56 15.6 33 19.8
002EEEFA 2019-04-21 21:45:39 15.6 33 19.8
002EEEFA 2019-04-21 21:11:22 15.6 33 19.8
002EEEFA 2019-04-21 20:37:05 15.6 33 19.7
002EEEFA 2019-04-21 20:02:48 15.6 33 19.7
002EEEFA 2019-04-21 19:28:32 15.6 33 19.6
002EEEFA 2019-04-21 18:54:14 15.6 33 19.6
002EEEFA 2019-04-21 18:19:57 15.6 33 19.6
002EEEFA 2019-04-21 17:45:41 15.6 33 19.7
002EEEFA 2019-04-21 17:11:26 15.6 33 19.6
002EEEFA 2019-04-21 16:37:11 15.6 33 19.8
002EEEFA 2019-04-21 16:02:56 15.6 33 19.9
002EEEFA 2019-04-21 15:28:42 15.6 33 19.9
002EEEFA 2019-04-21 14:54:28 15.6 33 19.9
002EEEFA 2019-04-21 14:20:13 15.6 33 20
002EEEFA 2019-04-21 13:45:59 15.6 33 20
002EEEFA 2019-04-21 13:11:45 15.6 33 20
002EEEFA 2019-04-21 12:37:30 15.6 33 20
002EEEFA 2019-04-21 12:03:15 15.6 33 20
002EEEFA 2019-04-21 11:29:00 15.6 33 20.1
002EEEFA 2019-04-21 10:54:44 15.6 33 20.3
002EEEFA 2019-04-21 10:20:30 15.6 33 20.4
002EEEFA 2019-04-21 09:46:15 15.6 33 20.5
002EEEFA 2019-04-21 09:12:00 15.6 33 20.5
002EEEFA 2019-04-21 08:37:45 15.6 33 20.5
002EEEFA 2019-04-21 08:03:31 15.6 33 20.6
002EEEFA 2019-04-21 07:29:16 15.6 33 20.7
002EEEFA 2019-04-21 06:55:02 15.7 33 20.7
002EEEFA 2019-04-21 06:20:47 15.6 33 20.8
002EEEFA 2019-04-21 05:46:33 15.6 33 21.9
002EEEFA 2019-04-21 05:12:18 15.6 33 22.1
002EEEFA 2019-04-21 04:38:03 15.6 33 22.1
002EEEFA 2019-04-21 04:03:50 15.6 33 23
002EEEFA 2019-04-21 03:29:34 15.6 33 23
002EEEFA 2019-04-21 02:55:20 15.6 33 23.1
002EEEFA 2019-04-21 02:21:07 15.6 33 23.1
002EEEFA 2019-04-21 01:46:53 15.6 33 22.9
002EEEFA 2019-04-21 01:12:39 15.6 33 23
002EEEFA 2019-04-21 00:38:26 15.6 33 23
002EEEFA 2019-04-21 00:04:13 15.6 33 22.9
002EEEFA 2019-04-20 23:29:57 15.6 33 23
002EEEFA 2019-04-20 22:55:44 15.7 33 23
002EEEFA 2019-04-20 22:21:30 15.6 33 22.9
002EEEFA 2019-04-20 21:47:17 15.6 33 22.9
002EEEFA 2019-04-20 21:13:04 15.7 33 22.8
002EEEFA 2019-04-20 20:38:51 15.6 33 22.7
002EEEFA 2019-04-20 20:04:39 15.6 33 22.6
002EEEFA 2019-04-20 19:30:27 15.6 33 22.6
002EEEFA 2019-04-20 18:56:15 15.7 33 22.5
002EEEFA 2019-04-20 18:22:04 15.7 33 22.5
002EEEFA 2019-04-20 17:47:53 15.7 33 22.5
002EEEFA 2019-04-20 17:13:41 15.6 32 22.5
002EEEFA 2019-04-20 16:39:29 15.6 32 22.5
002EEEFA 2019-04-20 16:05:18 15.6 32 22.5
002EEEFA 2019-04-20 15:31:10 15.7 32 21.5
002EEEFA 2019-04-20 14:56:57 15.7 32 21.3
002EEEFA 2019-04-20 14:22:45 15.6 32 21.3
002EEEFA 2019-04-20 13:48:34 15.7 32 19.9
002EEEFA 2019-04-20 13:14:23 15.7 32 19.9
002EEEFA 2019-04-20 12:40:12 15.8 32 19.9
002EEEFA 2019-04-20 12:06:02 15.8 32 19.9
002EEEFA 2019-04-20 11:31:50 15.8 32 19.9
002EEEFA 2019-04-20 10:57:38 15.8 32 19.9
002EEEFA 2019-04-20 10:23:27 15.8 32 20
002EEEFA 2019-04-20 09:49:16 15.8 32 20
002EEEFA 2019-04-20 09:15:04 15.8 32 20
002EEEFA 2019-04-20 08:40:53 15.8 32 20.2
002EEEFA 2019-04-20 08:06:41 15.8 32 20.3
002EEEFA 2019-04-20 07:32:29 15.9 32 20.4
002EEEFA 2019-04-20 06:58:18 15.9 32 20.3
002EEEFA 2019-04-20 06:24:07 15.8 32 20.4
002EEEFA 2019-04-20 05:49:55 15.9 32 20.3
002EEEFA 2019-04-20 05:15:44 16 32 20.3
002EEEFA 2019-04-20 04:41:33 15.9 32 20.3
002EEEFA 2019-04-20 04:07:21 16 32 20.3
002EEEFA 2019-04-20 03:33:10 16 32 20.2
002EEEFA 2019-04-20 02:58:59 16 32 20.1
002EEEFA 2019-04-20 02:24:47 16 32 20
002EEEFA 2019-04-20 01:50:37 16 32 20
002EEEFA 2019-04-20 01:16:27 16 32 20
002EEEFA 2019-04-20 00:42:16 16.1 32 19.9
002EEEFA 2019-04-20 00:08:07 16.1 32 19.9
002EEEFA 2019-04-19 23:33:54 16.1 32 19.8
002EEEFA 2019-04-19 22:59:44 16.1 32 19.7
002EEEFA 2019-04-19 22:25:36 16.1 32 19.7
002EEEFA 2019-04-19 21:51:21 16.2 32 19.6
002EEEFA 2019-04-19 21:17:09 16.3 32 19.5
002EEEFA 2019-04-19 20:42:58 16.3 32 19.5
002EEEFA 2019-04-19 20:08:47 16.2 32 19.5
002EEEFA 2019-04-19 19:34:35 16.3 32 19.3
002EEEFA 2019-04-19 19:00:24 16.3 32 19.3
002EEEFA 2019-04-19 18:26:11 16.3 32 19.3
002EEEFA 2019-04-19 17:52:00 16.3 32 19.2
002EEEFA 2019-04-19 17:17:48 16.1 32 19.1
002EEEFA 2019-04-19 16:43:37 16 32 19.2
002EEEFA 2019-04-19 16:09:26 16 31 19.3
002EEEFA 2019-04-19 15:35:14 16 31 19.4
002EEEFA 2019-04-19 15:01:03 16 31 19.4
002EEEFA 2019-04-19 14:26:52 16 31 19.2
002EEEFA 2019-04-19 13:52:42 16 31 19.3
002EEEFA 2019-04-19 13:18:31 16 31 19.3
002EEEFA 2019-04-19 12:44:22 16 31 19.4
002EEEFA 2019-04-19 12:10:09 16 31 19.4
002EEEFA 2019-04-19 11:35:58 16 31 19.5
002EEEFA 2019-04-19 11:01:47 16 31 19.6
002EEEFA 2019-04-19 10:27:36 16 31 19.6
002EEEFA 2019-04-19 09:53:27 16 31 19.6
002EEEFA 2019-04-19 09:19:15 16 31 20.3
002EEEFA 2019-04-19 08:45:04 16 31 20.9
002EEEFA 2019-04-19 08:10:53 16 31 21.1
002EEEFA 2019-04-19 07:36:43 16.1 31 21.3
002EEEFA 2019-04-19 07:02:32 16.1 30 21.5
002EEEFA 2019-04-19 06:28:21 16.2 31 21.9
002EEEFA 2019-04-19 05:54:10 16.3 31 22.1
002EEEFA 2019-04-19 05:19:59 16.3 30 22.3
002EEEFA 2019-04-19 04:45:49 16.3 30 22.9
002EEEFA 2019-04-19 04:11:37 16.3 30 22.8
002EEEFA 2019-04-19 03:37:26 16.3 30 23.1
002EEEFA 2019-04-19 03:03:16 16.4 30 23.2
002EEEFA 2019-04-19 02:29:05 16.4 30 23.3
002EEEFA 2019-04-19 01:54:55 16.5 30 23.4
002EEEFA 2019-04-19 01:20:44 16.5 30 23.8
002EEEFA 2019-04-19 00:46:32 16.5 30 24
002EEEFA 2019-04-19 00:12:21 16.5 30 24.3
002EEEFA 2019-04-18 23:38:10 16.7 30 24.5
002EEEFA 2019-04-18 23:03:57 16.7 30 24.6
002EEEFA 2019-04-18 22:29:44 16.7 30 24.5
002EEEFA 2019-04-18 21:55:31 16.7 30 24.6
002EEEFA 2019-04-18 21:21:18 16.7 30 24.5
002EEEFA 2019-04-18 20:47:06 16.7 30 24.5
002EEEFA 2019-04-18 20:12:52 16.7 30 24.5
002EEEFA 2019-04-18 19:38:39 16.7 30 24.5
002EEEFA 2019-04-18 19:04:25 16.7 30 24.3
002EEEFA 2019-04-18 18:30:12 16.7 30 24
002EEEFA 2019-04-18 17:55:58 16.7 30 23.9
002EEEFA 2019-04-18 17:21:44 16.6 30 23.8
002EEEFA 2019-04-18 16:47:30 16.6 30 23.7
002EEEFA 2019-04-18 16:13:16 16.5 30 23.4
002EEEFA 2019-04-18 15:39:02 16.5 30 23.2
002EEEFA 2019-04-18 15:04:49 16.5 30 23.1
002EEEFA 2019-04-18 14:30:36 16.5 30 22.6
002EEEFA 2019-04-18 13:56:22 16.5 30 22.6
002EEEFA 2019-04-18 13:22:10 16.5 29 22.2
002EEEFA 2019-04-18 12:47:57 16.5 29 22
002EEEFA 2019-04-18 12:13:42 16.5 29 21.9
002EEEFA 2019-04-18 11:39:28 16.5 29 21.7
002EEEFA 2019-04-18 11:05:15 16.5 29 21.1
002EEEFA 2019-04-18 10:31:02 16.5 29 20.8
002EEEFA 2019-04-18 09:56:49 16.5 29 20.2
002EEEFA 2019-04-18 09:22:36 16.5 29 19.3
002EEEFA 2019-04-18 08:48:23 16.5 29 19.3
002EEEFA 2019-04-18 08:14:10 16.5 29 19.5
002EEEFA 2019-04-18 07:39:57 16.6 29 19.3
002EEEFA 2019-04-18 07:05:44 16.6 29 19.3
002EEEFA 2019-04-18 06:31:31 16.7 29 19.5
002EEEFA 2019-04-18 05:57:18 16.7 29 19.6
002EEEFA 2019-04-18 05:23:05 16.7 28 20
002EEEFA 2019-04-18 04:48:52 16.7 28 19.9
002EEEFA 2019-04-18 04:14:39 16.7 28 19.9
002EEEFA 2019-04-18 03:40:26 16.7 28 19.8
002EEEFA 2019-04-18 03:06:12 16.7 28 19.9
002EEEFA 2019-04-18 02:31:59 16.9 28 19.8
002EEEFA 2019-04-18 01:57:48 16.9 28 19.8
002EEEFA 2019-04-18 01:23:32 16.9 28 19.8
002EEEFA 2019-04-18 00:49:19 17.1 28 20.3
002EEEFA 2019-04-18 00:15:06 17.1 28 20.4
002EEEFA 2019-04-17 23:40:53 17.1 28 20.6
002EEEFA 2019-04-17 23:06:42 17.1 28 20.7
002EEEFA 2019-04-17 22:32:30 17.1 28 20.8
002EEEFA 2019-04-17 21:58:17 17.1 28 20.9
002EEEFA 2019-04-17 21:24:05 17.1 28 21.1
002EEEFA 2019-04-17 20:49:53 17.1 28 21.1
002EEEFA 2019-04-17 20:15:40 17.1 28 21
002EEEFA 2019-04-17 19:41:29 17.1 28 21.1
002EEEFA 2019-04-17 19:07:16 17.1 28 21.4
002EEEFA 2019-04-17 18:33:03 17.2 27 21.5
002EEEFA 2019-04-17 17:58:52 17.3 27 21.4
002EEEFA 2019-04-17 17:24:39 17.3 27 21.5
002EEEFA 2019-04-17 16:50:26 17.3 27 22.5
002EEEFA 2019-04-17 16:16:13 17.3 27 22.5
002EEEFA 2019-04-17 15:42:01 17.4 27 22.4
002EEEFA 2019-04-17 15:07:48 17.5 27 23.1
002EEEFA 2019-04-17 14:33:35 17.5 27 23.2
002EEEFA 2019-04-17 13:59:23 17.7 27 23.2
002EEEFA 2019-04-17 13:25:14 17.8 27 23.3
002EEEFA 2019-04-17 12:50:58 17.8 27 23.2
002EEEFA 2019-04-17 12:16:45 17.8 27 23.2
002EEEFA 2019-04-17 11:42:33 17.8 26 23.2
002EEEFA 2019-04-17 11:08:22 17.8 26 23.9
002EEEFA 2019-04-17 10:34:07 17.8 26 24.3
002EEEFA 2019-04-17 09:59:54 18 26 24.2
002EEEFA 2019-04-17 09:25:41 18 26 24.1
002EEEFA 2019-04-17 08:51:29 18 25 24
002EEEFA 2019-04-17 08:17:17 18.2 25 24
002EEEFA 2019-04-17 07:43:05 18.2 25 24.1
002EEEFA 2019-04-17 07:08:53 18.4 26 24
002EEEFA 2019-04-17 06:34:40 18.4 25 24.1
002EEEFA 2019-04-17 06:00:28 18.6 25 24.1
002EEEFA 2019-04-17 05:26:16 18.6 25 24
002EEEFA 2019-04-17 04:52:04 18.6 25 23.9
002EEEFA 2019-04-17 04:17:51 18.8 25 23.8
002EEEFA 2019-04-17 03:43:38 18.8 25 23.7
002EEEFA 2019-04-17 03:09:26 18.8 25 23.6
002EEEFA 2019-04-17 02:35:13 18.8 25 22.9
002EEEFA 2019-04-17 02:01:01 19 25 22.9
002EEEFA 2019-04-17 01:26:49 19 25 22.8
002EEEFA 2019-04-17 00:52:36 19 25 21.8
002EEEFA 2019-04-17 00:18:25 19.1 24 21.6
002EEEFA 2019-04-16 23:44:13 19.2 24 21.4
002EEEFA 2019-04-16 23:10:01 19.2 24 21.3
002EEEFA 2019-04-16 22:35:50 19.5 24 21.3
002EEEFA 2019-04-16 22:01:38 19.5 24 21.2
002EEEFA 2019-04-16 21:27:26 19.7 24 21.3
002EEEFA 2019-04-16 20:53:14 19.7 24 19.7
002EEEFA 2019-04-16 20:19:03 19.9 24 17.4
002EEEFA 2019-04-16 19:44:51 19.9 24 17.4
002EEEFA 2019-04-16 19:10:40 19.9 24 17.3
002EEEFA 2019-04-16 18:36:29 20.1 24 17.4
002EEEFA 2019-04-16 18:02:17 20.1 24 17.4
002EEEFA 2019-04-16 16:19:41 20.5 23 16
002EEEFA 2019-04-16 15:11:17 21 24 15.5
002EEEFA 2019-04-16 14:37:04 21 24 14.8
002EEEFA 2019-04-16 14:02:53 21.1 25 13.7
002EEEFA 2019-04-16 13:28:43 21 25 13.7
002EEEFA 2019-04-16 12:54:31 21 25 13.3
002EEEFA 2019-04-16 12:20:21 21 25 13.4
002EEEFA 2019-04-16 11:46:08 21 25 13.4
002EEEFA 2019-04-16 11:11:58 21 25 12.1
002EEEFA 2019-04-16 10:37:42 21 25 12.1
002EEEFA 2019-04-16 10:03:30 21 25 12.2
002EEEFA 2019-04-16 09:29:21 21 25 12.3
002EEEFA 2019-04-16 08:55:07 21 25 12.2
002EEEFA 2019-04-16 08:20:55 21 25 12.8
002EEEFA 2019-04-16 07:46:40 21 25 12.8
002EEEFA 2019-04-16 07:12:28 21 25 12.7
002EEEFA 2019-04-16 06:38:14 21 25 12.5
002EEEFA 2019-04-16 06:04:00 21 25 12.5
002EEEFA 2019-04-16 05:29:47 21 25 12.5
002EEEFA 2019-04-16 04:55:34 21 25 12.4
002EEEFA 2019-04-16 04:21:21 21 24 12.6
002EEEFA 2019-04-16 03:47:08 21 24 12.6
002EEEFA 2019-04-16 03:12:56 21 24 12.5
002EEEFA 2019-04-16 02:38:43 21 24 14.3
002EEEFA 2019-04-16 02:04:30 21 24 17.5
002EEEFA 2019-04-16 01:30:17 21 24 19.2
002EEEFA 2019-04-16 00:56:07 21 24 19.8
002EEEFA 2019-04-16 00:21:53 21 24 20.6
002EEEFA 2019-04-15 23:47:40 21.1 24 21.5
002EEEFA 2019-04-15 23:13:27 21 24 22.3
002EEEFA 2019-04-15 22:39:14 21.1 23 22.8
002EEEFA 2019-04-15 22:05:01 21.2 23 23.4
002EEEFA 2019-04-15 21:30:49 21.2 23 23.8
002EEEFA 2019-04-15 20:56:36 21.2 23 24.1
002EEEFA 2019-04-15 20:22:23 21.2 23 24.4
002EEEFA 2019-04-15 19:48:13 21.2 22 24.8
002EEEFA 2019-04-15 19:13:58 21.2 22 25
002EEEFA 2019-04-15 18:39:47 21.3 22 25.1
002EEEFA 2019-04-15 18:05:32 21.4 22 25.6
002EEEFA 2019-04-15 17:31:23 21.4 22 25.9
002EEEFA 2019-04-15 16:57:10 21.4 21 26
002EEEFA 2019-04-15 16:22:55 21.6 21 26.4
002EEEFA 2019-04-15 15:48:43 21.6 21 26.6
002EEEFA 2019-04-15 15:14:30 21.8 20 26.8
002EEEFA 2019-04-15 14:40:18 21.8 20 27.1
002EEEFA 2019-04-15 14:06:05 22 19 27.3
002EEEFA 2019-04-15 13:31:52 22.2 19 27.4
002EEEFA 2019-04-15 12:23:31 22.6 19 27.5
002EEEFA 2019-04-15 11:49:17 22.5 16 27.6
002EEEFA 2019-04-15 11:15:04 22.5 16 27.7
002EEEFA 2019-04-15 10:40:51 22.5 17 27.6
002EEEFA 2019-04-15 10:06:40 22.4 17 27.6
002EEEFA 2019-04-15 09:32:28 22.4 18 27.7
002EEEFA 2019-04-15 08:58:17 22.2 17 27.8
002EEEFA 2019-04-15 08:24:04 22.2 17 27.7
002EEEFA 2019-04-15 07:49:52 22.1 17 27.7
002EEEFA 2019-04-15 07:15:39 22 17 27.7
002EEEFA 2019-04-15 06:41:27 22 18 27.6
002EEEFA 2019-04-15 06:07:16 22 18 27.8
002EEEFA 2019-04-15 05:33:04 22 18 27.8
002EEEFA 2019-04-15 04:58:52 22 18 27.9
002EEEFA 2019-04-15 04:24:40 22 18 27.9
002EEEFA 2019-04-15 03:50:28 22 18 28
002EEEFA 2019-04-15 03:16:17 22 18 27.9
002EEEFA 2019-04-15 02:42:06 22 18 27.8
002EEEFA 2019-04-15 02:07:53 22 18 27.8
002EEEFA 2019-04-15 01:33:42 22 18 27.8
002EEEFA 2019-04-15 00:59:30 22 18 27.8
002EEEFA 2019-04-15 00:25:18 22 18 27.8
002EEEFA 2019-04-14 23:51:06 22 18 27.7
002EEEFA 2019-04-14 23:16:53 22 18 27.7
002EEEFA 2019-04-14 22:42:41 22 18 27.8
002EEEFA 2019-04-14 22:08:28 22 18 27.8
002EEEFA 2019-04-14 21:34:16 22.1 19 27.8
002EEEFA 2019-04-14 21:00:03 22.2 19 27.7
002EEEFA 2019-04-14 20:25:52 22.2 19 27.7
002EEEFA 2019-04-14 19:51:40 22.2 19 27.7
002EEEFA 2019-04-14 19:17:28 22.2 19 27.6
002EEEFA 2019-04-14 18:43:16 22.2 18 27.4
002EEEFA 2019-04-14 18:09:05 22.2 18 27.4
002EEEFA 2019-04-14 17:34:53 22.1 18 27.5
002EEEFA 2019-04-14 17:00:41 22 18 27.4
002EEEFA 2019-04-14 16:26:29 22 18 27.4
002EEEFA 2019-04-14 15:52:17 22 18 27.4
002EEEFA 2019-04-14 15:18:05 22 19 27.3
002EEEFA 2019-04-14 14:43:52 22 19 27.3
002EEEFA 2019-04-14 14:09:39 22.1 19 27.4
002EEEFA 2019-04-14 13:35:27 22.1 19 27.3
002EEEFA 2019-04-14 13:01:15 22 19 27.3
002EEEFA 2019-04-14 12:27:02 22.1 19 27.3
002EEEFA 2019-04-14 11:52:51 22.1 19 27.4
002EEEFA 2019-04-14 11:18:39 22 19 27.4
002EEEFA 2019-04-14 10:44:26 22 19 27.3
002EEEFA 2019-04-14 10:10:14 22 19 27.1
002EEEFA 2019-04-14 09:36:01 22 19 27.2
002EEEFA 2019-04-14 09:01:48 22 19 27.2
002EEEFA 2019-04-14 08:27:37 22 19 27.2
002EEEFA 2019-04-14 07:53:26 22 18 27.2
002EEEFA 2019-04-14 07:19:14 22 18 27.2
002EEEFA 2019-04-14 06:45:02 22 18 27.1
002EEEFA 2019-04-14 06:10:49 22 18 27.3
002EEEFA 2019-04-14 05:36:37 22 18 27.4
002EEEFA 2019-04-14 05:02:24 22 18 27.6
002EEEFA 2019-04-14 04:28:11 22 18 27.6
002EEEFA 2019-04-14 03:53:58 22 18 27.7
002EEEFA 2019-04-14 03:19:47 22.1 18 27.6
002EEEFA 2019-04-14 02:45:35 22.1 18 27.8
002EEEFA 2019-04-14 02:11:22 22.1 18 28
002EEEFA 2019-04-14 01:37:09 22.1 18 27.8
002EEEFA 2019-04-14 01:02:57 22.1 18 27.9
002EEEFA 2019-04-14 00:28:44 22.1 18 27.8
002EEEFA 2019-04-13 23:54:31 22.2 18 27.7
002EEEFA 2019-04-13 23:20:18 22.2 18 27.8
002EEEFA 2019-04-13 22:46:06 22.2 18 27.8
002EEEFA 2019-04-13 22:11:53 22.2 18 27.7
002EEEFA 2019-04-13 21:37:40 22.2 18 27.8
002EEEFA 2019-04-13 21:03:28 22.2 18 27.7
002EEEFA 2019-04-13 20:29:16 22.2 18 27.8
002EEEFA 2019-04-13 19:55:04 22.2 18 27.9
002EEEFA 2019-04-13 19:20:52 22.2 18 28
002EEEFA 2019-04-13 18:46:40 22.3 18 28
002EEEFA 2019-04-13 18:12:27 22.3 18 28
002EEEFA 2019-04-13 17:38:14 22.5 18 28.2
002EEEFA 2019-04-13 17:04:02 22.5 18 28.2
002EEEFA 2019-04-13 16:29:49 22.5 18 28.3
002EEEFA 2019-04-13 15:55:36 22.5 18 28.1
002EEEFA 2019-04-13 15:21:24 22.5 18 28
002EEEFA 2019-04-13 14:47:12 22.5 18 28
002EEEFA 2019-04-13 14:12:59 22.5 18 28
002EEEFA 2019-04-13 13:38:47 22.5 18 27.9
002EEEFA 2019-04-13 13:04:36 22.5 18 28
002EEEFA 2019-04-13 12:30:23 22.5 18 27.9
002EEEFA 2019-04-13 11:56:11 22.5 18 27.7
002EEEFA 2019-04-13 11:22:00 22.5 18 27.8
002EEEFA 2019-04-13 10:47:49 22.5 18 27.7
002EEEFA 2019-04-13 10:13:36 22.5 18 27.7
002EEEFA 2019-04-13 09:39:24 22.5 18 27.7
002EEEFA 2019-04-13 09:05:12 22.5 18 27.7
002EEEFA 2019-04-13 08:31:00 22.5 18 27.6
002EEEFA 2019-04-13 07:56:47 22.5 18 27.7
002EEEFA 2019-04-13 07:22:35 22.5 18 27.6
002EEEFA 2019-04-13 06:48:23 22.5 18 27.6
002EEEFA 2019-04-13 06:14:11 22.5 18 27.6
002EEEFA 2019-04-13 05:39:59 22.5 18 27.5
002EEEFA 2019-04-13 05:05:47 22.5 18 27.4
002EEEFA 2019-04-13 04:31:35 22.5 18 27.5
002EEEFA 2019-04-13 03:57:23 22.5 18 27.6
002EEEFA 2019-04-13 03:23:11 22.5 18 27.5
002EEEFA 2019-04-13 02:48:58 22.6 18 27.4
002EEEFA 2019-04-13 02:14:46 22.7 18 27.4
002EEEFA 2019-04-13 01:40:35 22.7 18 27.4
002EEEFA 2019-04-13 01:06:22 22.7 18 27.4
002EEEFA 2019-04-13 00:32:09 22.7 18 27.3
002EEEFA 2019-04-12 23:57:57 22.7 18 27.3
002EEEFA 2019-04-12 23:23:44 22.8 18 27.3
002EEEFA 2019-04-12 22:49:32 22.9 18 27.1
002EEEFA 2019-04-12 22:15:19 22.9 18 27.1
002EEEFA 2019-04-12 21:41:07 22.9 18 27.1
002EEEFA 2019-04-12 21:06:55 22.9 19 27.2
002EEEFA 2019-04-12 20:32:43 23 19 27.2
002EEEFA 2019-04-12 19:58:31 22.9 18 27.3
002EEEFA 2019-04-12 19:24:19 23 18 27.2
002EEEFA 2019-04-12 18:50:07 23.1 17 27.3
002EEEFA 2019-04-12 18:15:56 23.1 17 27.4
002EEEFA 2019-04-12 17:41:45 23.3 17 27.4
002EEEFA 2019-04-12 17:07:32 23.3 17 27.4
002EEEFA 2019-04-12 16:33:21 23.3 17 27.7
002EEEFA 2019-04-12 15:59:08 23.3 17 27.9
002EEEFA 2019-04-12 15:24:57 23.2 17 28
002EEEFA 2019-04-12 14:50:45 23.1 18 28.4
002EEEFA 2019-04-12 14:16:34 22.9 18 27.7
002EEEFA 2019-04-12 13:42:23 22.2 19 25.8
002EEEFA 2019-04-12 13:08:12 21.2 20 14.8